Location: Ravensburg
(47.7866°N, 9.6124°E)
Time: 05:44:18
(UTC+02:00)

AO-73 - Pass Details

Date: 22 March 2026
Orbit: 514 x 567 km, 97.8° (Epoch: 17 April)

Event Time Altitude Azimuth Distance (km) Brightness Sun altitude
Rises 04:16:34 0° 13° (NNE) 2,654 ? -21.0°
Reaches altitude 10° 04:18:40 10° 13° (NNE) 1,757 ? -20.7°
Maximum altitude 04:22:27 87° 286° (WNW) 522 ? -20.1°
Enters shadow 04:23:17 53° 198° (SSW) 638 ? -20.0°
